Reno - Stead, NV

2:17 AM PST on November 23, 2017 (GMT -0800)
Reno - Stead

Weather History for KRTS - April, 2014

Change the Weather History Date:

Sunday, April 13, 2014

  Actual Average (KRNO) Record (KRNO)
Temperature  
Mean Temperature 48 °F -  
Max Temperature 59 °F 63 °F 83 °F (1940)
Min Temperature 37 °F 31 °F 13 °F (1945)
Degree Days  
Heating Degree Days 17    
Moisture  
Dew Point 5 °F    
Average Humidity 20    
Maximum Humidity 39    
Minimum Humidity 6    
Precipitation  
Precipitation 0.00 in - - ()
Sea Level Pressure  
Sea Level Pressure 30.15 in    
Wind  
Wind Speed 10 mph (NNE)    
Max Wind Speed 17 mph    
Max Gust Speed 25 mph    
Visibility 10 miles    
Events      
Averages and records for this station are not official NWS values.
T = Trace of Precipitation, MM = Missing Value Source: NWS Daily Summary

Daily Weather History Graph

Daily Weather History Graph

Search for Another Location

Airport or City:

Trip Planner

Search our weather history database for the weather conditions in past years. The results will help you decide how hot, cold, wet, or windy it might be!

Date:

Astronomy

Apr. 13, 2014 Rise Set
Actual Time 6:24 AM PDT 7:35 PM PDT
Civil Twilight 5:57 AM PDT 8:03 PM PDT
Nautical Twilight 5:24 AM PDT 8:36 PM PDT
Astronomical Twilight 4:49 AM PDT 9:11 PM PDT
Moon 6:18 PM PDT (4/13) 5:26 AM PDT (4/13)
Length of Visible Light 14h 06m
Length of Day
13h 10m
Waxing Gibbous, 97% of the Moon is Illuminated
Apr 13
Waxing Gibbous
Apr 15
Full
Apr 22
Last Quarter
Apr 28
New
May 6
First Quarter

Hourly Weather History & Observations

Time (PDT) Temp. Windchill Dew Point Humidity Pressure Visibility Wind Dir Wind Speed Gust Speed Precip Events Conditions
12:15 AM 53.6 °F - 15.8 °F 22% 29.98 in 10.0 mi NNW 17.3 mph - N/A   Overcast
12:35 AM 53.6 °F - 10.4 °F 18% 29.99 in 10.0 mi NNW 13.8 mph - N/A   Overcast
12:55 AM 51.8 °F - 14.0 °F 22% 29.99 in 10.0 mi North 15.0 mph - N/A   Overcast
1:15 AM 51.8 °F - 15.8 °F 24% 30.00 in 10.0 mi North 15.0 mph 25.3 mph N/A   Mostly Cloudy
1:35 AM 50.0 °F - 17.6 °F 28% 30.01 in 10.0 mi North 9.2 mph - N/A   Mostly Cloudy
1:55 AM 48.2 °F - 17.6 °F 30% 30.01 in 10.0 mi North 12.7 mph - N/A   Mostly Cloudy
2:15 AM 48.2 °F - 15.8 °F 27% 30.02 in 10.0 mi NNW 9.2 mph - N/A   Partly Cloudy
2:35 AM 44.6 °F 39.7 °F 17.6 °F 34% 30.03 in 10.0 mi NW 9.2 mph - N/A   Clear
2:55 AM 44.6 °F 39.2 °F 10.4 °F 25% 30.03 in 10.0 mi NW 10.4 mph - N/A   Partly Cloudy
3:15 AM 44.6 °F 39.2 °F 6.8 °F 21% 30.04 in 10.0 mi NW 10.4 mph - N/A   Clear
3:35 AM 44.6 °F 39.7 °F 5.0 °F 20% 30.04 in 10.0 mi NNW 9.2 mph - N/A   Clear
3:55 AM 41.0 °F 36.4 °F 5.0 °F 23% 30.04 in 10.0 mi North 6.9 mph - N/A   Clear
4:15 AM 39.2 °F 33.0 °F 5.0 °F 24% 30.05 in 10.0 mi North 9.2 mph - N/A   Clear
4:35 AM 37.4 °F 30.3 °F 5.0 °F 26% 30.06 in 10.0 mi North 10.4 mph - N/A   Clear
4:55 AM 37.4 °F 31.4 °F 5.0 °F 26% 30.08 in 10.0 mi North 8.1 mph - N/A   Clear
5:15 AM 39.2 °F 31.6 °F 5.0 °F 24% 30.09 in 10.0 mi NNW 12.7 mph - N/A   Clear
5:35 AM 37.4 °F 30.8 °F 10.4 °F 33% 30.09 in 10.0 mi NW 9.2 mph - N/A   Clear
5:55 AM 37.4 °F 33.8 °F 10.4 °F 33% 30.10 in 10.0 mi NW 4.6 mph - N/A   Clear
6:15 AM 41.0 °F 37.1 °F 14.0 °F 33% 30.11 in 10.0 mi WNW 5.8 mph - N/A   Clear
6:35 AM 37.4 °F 31.4 °F 14.0 °F 38% 30.12 in 10.0 mi North 8.1 mph - N/A   Clear
6:55 AM 39.2 °F 32.0 °F 14.0 °F 36% 30.13 in 10.0 mi NNW 11.5 mph 17.3 mph N/A   Clear
7:15 AM 39.2 °F 31.2 °F 15.8 °F 39% 30.14 in 10.0 mi North 13.8 mph - N/A   Clear
7:35 AM 39.2 °F 31.2 °F 15.8 °F 39% 30.16 in 10.0 mi North 13.8 mph 17.3 mph N/A   Clear
7:55 AM 41.0 °F 34.3 °F 15.8 °F 36% 30.17 in 10.0 mi NNE 11.5 mph - N/A   Clear
8:15 AM 42.8 °F 37.5 °F 15.8 °F 34% 30.17 in 10.0 mi North 9.2 mph - N/A   Clear
8:35 AM 44.6 °F 39.7 °F 15.8 °F 31% 30.17 in 10.0 mi NNE 9.2 mph - N/A   Clear
8:55 AM 44.6 °F 40.7 °F 15.8 °F 31% 30.18 in 10.0 mi East 6.9 mph - N/A   Clear
9:15 AM 44.6 °F 42.2 °F 15.8 °F 31% 30.18 in 10.0 mi South 4.6 mph - N/A   Clear
9:35 AM 46.4 °F 45.2 °F 14.0 °F 27% 30.18 in 10.0 mi WSW 3.5 mph - N/A   Clear
9:55 AM 46.4 °F 44.3 °F 14.0 °F 27% 30.19 in 10.0 mi ESE 4.6 mph - N/A   Clear
10:15 AM 46.4 °F 43.5 °F 14.0 °F 27% 30.20 in 10.0 mi East 5.8 mph - N/A   Clear
10:35 AM 48.2 °F - 14.0 °F 25% 30.20 in 10.0 mi SSE 5.8 mph - N/A   Clear
10:55 AM 48.2 °F - 12.2 °F 24% 30.20 in 10.0 mi ENE 4.6 mph - N/A   Clear
11:15 AM 50.0 °F - 10.4 °F 20% 30.20 in 10.0 mi East 5.8 mph - N/A   Clear
11:35 AM 50.0 °F - 10.4 °F 20% 30.20 in 10.0 mi South 8.1 mph - N/A   Clear
11:55 AM 51.8 °F - 5.0 °F 15% 30.20 in 10.0 mi East 8.1 mph - N/A   Clear
12:15 PM 51.8 °F - 3.2 °F 14% 30.19 in 10.0 mi East 4.6 mph - N/A   Clear
12:35 PM 51.8 °F - 3.2 °F 14% 30.19 in 10.0 mi NE 11.5 mph - N/A   Clear
12:55 PM 53.6 °F - -0.4 °F 11% 30.19 in 10.0 mi East 4.6 mph 16.1 mph N/A   Clear
1:15 PM 55.4 °F - -11.2 °F 6% 30.19 in 10.0 mi ENE 12.7 mph 16.1 mph N/A   Clear
1:35 PM 55.4 °F - -5.8 °F 8% 30.18 in 10.0 mi ENE 6.9 mph 18.4 mph N/A   Clear
1:55 PM 55.4 °F - -5.8 °F 8% 30.18 in 10.0 mi NE 15.0 mph 21.9 mph N/A   Clear
2:15 PM 57.2 °F - -2.2 °F 9% 30.18 in 10.0 mi East 13.8 mph 18.4 mph N/A   Clear
2:35 PM 55.4 °F - -2.2 °F 9% 30.18 in 10.0 mi NNE 8.1 mph 20.7 mph N/A   Clear
2:55 PM 57.2 °F - -2.2 °F 9% 30.17 in 10.0 mi East 8.1 mph - N/A   Clear
3:15 PM 57.2 °F - -2.2 °F 9% 30.16 in 10.0 mi NE 12.7 mph 18.4 mph N/A   Clear
3:35 PM 57.2 °F - -7.6 °F 7% 30.16 in 10.0 mi NE 15.0 mph 19.6 mph N/A   Clear
3:55 PM 57.2 °F - -7.6 °F 7% 30.16 in 10.0 mi NE 12.7 mph 19.6 mph N/A   Clear
4:15 PM 57.2 °F - -11.2 °F 6% 30.16 in 10.0 mi ENE 11.5 mph 18.4 mph N/A   Clear
4:35 PM 57.2 °F - -11.2 °F 6% 30.16 in 10.0 mi ENE 12.7 mph - N/A   Clear
4:55 PM 59.0 °F - -4.0 °F 8% 30.16 in 10.0 mi NE 12.7 mph - N/A   Clear
5:15 PM 57.2 °F - -4.0 °F 8% 30.16 in 10.0 mi ENE 15.0 mph - N/A   Clear
5:35 PM 57.2 °F - -0.4 °F 10% 30.16 in 10.0 mi ENE 12.7 mph 17.3 mph N/A   Clear
5:55 PM 57.2 °F - -0.4 °F 10% 30.16 in 10.0 mi NE 13.8 mph - N/A   Clear
6:15 PM 57.2 °F - -11.2 °F 6% 30.16 in 10.0 mi NE 11.5 mph - N/A   Clear
6:35 PM 57.2 °F - -5.8 °F 8% 30.17 in 10.0 mi NNE 12.7 mph - N/A   Clear
6:55 PM 55.4 °F - -5.8 °F 8% 30.17 in 10.0 mi NE 11.5 mph - N/A   Clear
7:15 PM 55.4 °F - -4.0 °F 9% 30.17 in 10.0 mi NNE 11.5 mph - N/A   Clear
7:35 PM 53.6 °F - -0.4 °F 11% 30.18 in 10.0 mi NE 11.5 mph - N/A   Clear
7:55 PM 50.0 °F - -0.4 °F 13% 30.18 in 10.0 mi NE 11.5 mph - N/A   Clear
8:15 PM 50.0 °F - -0.4 °F 13% 30.19 in 10.0 mi East 4.6 mph - N/A   Clear
8:35 PM 50.0 °F - 1.4 °F 14% 30.21 in 10.0 mi East 6.9 mph - N/A   Clear
8:55 PM 48.2 °F - 1.4 °F 15% 30.22 in 10.0 mi East 5.8 mph - N/A   Clear
9:15 PM 44.6 °F - 1.4 °F 17% 30.23 in 10.0 mi Calm Calm - N/A   Clear
9:35 PM 42.8 °F 38.6 °F -0.4 °F 16% 30.23 in 10.0 mi WSW 6.9 mph - N/A   Clear
9:55 PM 44.6 °F 41.4 °F 1.4 °F 17% 30.24 in 10.0 mi SSW 5.8 mph - N/A   Clear
10:15 PM 42.8 °F - 3.2 °F 19% 30.24 in 10.0 mi Calm Calm - N/A   Clear
10:35 PM 41.0 °F - 1.4 °F 19% 30.23 in 10.0 mi Calm Calm - N/A   Clear
10:55 PM 39.2 °F - 1.4 °F 21% 30.24 in 10.0 mi Calm Calm - N/A   Clear
11:15 PM 39.2 °F 35.9 °F 1.4 °F 21% 30.24 in 10.0 mi NNE 4.6 mph - N/A   Clear
11:35 PM 39.2 °F 37.0 °F -0.4 °F 19% 30.24 in 10.0 mi North 3.5 mph - N/A   Clear
11:55 PM 39.2 °F 37.0 °F -0.4 °F 19% 30.24 in 10.0 mi North 3.5 mph - N/A   Clear